GFSMA_850_dewp_126.txt.gz
Dewpoint
12 14 13 13 13 12 11 11 10 9 12 12 12 11 12 12 11 12 11 10 9 9 10 8 8 8 9 9 9 8 6 6 8 8 8 8 8 6 3 2 -6 -15 -13
13 14 12 13 13 13 12 12 12 13 12 12 12 11 12 12 12 11 11 10 10 9 8 9 8 8 8 8 8 8 5 5 8 7 8 8 8 8 7 6 0 -15 -12
13 12 13 13 13 13 13 13 12 12 12 12 12 11 11 12 11 11 11 11 10 9 9 9 9 9 9 9 7 7 5 7 7 8 8 8 8 8 7 6 -5 -13 -10
13 13 13 13 13 12 13 12 12 12 12 11 12 12 11 11 10 10 11 11 11 10 10 9 9 9 9 10 8 6 5 7 7 7 8 8 8 7 7 4 -4 -8 -9
12 12 12 13 12 12 12 12 12 12 12 11 11 12 12 11 10 10 10 10 11 11 11 10 9 9 9 10 8 7 6 5 7 7 7 8 7 7 7 4 -3 -7 -7
12 12 12 14 12 13 12 12 12 12 12 12 11 10 12 12 11 10 10 10 10 10 10 10 10 10 9 9 9 9 8 7 4 6 6 7 7 6 7 7 2 -9 -7
7 13 12 14 13 14 13 12 12 12 13 12 11 11 11 10 10 11 12 10 10 10 11 10 10 10 10 9 9 9 8 8 7 6 4 5 6 7 7 7 7 3 -6
5 9 13 12 10 12 12 12 13 13 13 12 12 12 12 10 11 10 10 11 11 11 10 10 10 10 9 10 9 9 9 9 9 8 7 5 6 6 7 7 7 6 4
11 6 8 12 9 7 11 13 13 13 13 12 12 11 11 10 9 9 9 9 9 10 10 11 10 10 10 10 10 9 9 8 9 8 8 7 5 6 7 7 7 6 4
11 10 6 11 10 10 9 13 13 14 14 12 12 12 10 10 10 11 11 10 9 9 9 10 10 10 10 11 10 9 9 9 7 7 8 8 6 5 6 6 5 4 1
12 10 8 12 12 10 6 8 13 14 14 12 11 11 12 10 10 11 11 11 11 10 9 8 9 10 10 10 11 10 9 9 8 7 7 8 7 6 6 7 5 3 1
13 11 10 11 12 12 7 5 10 12 14 13 12 11 10 12 11 11 11 9 10 10 10 9 8 8 9 10 10 9 9 9 8 7 6 6 8 7 5 6 6 6 4
13 12 12 13 14 13 10 9 10 10 12 13 13 12 11 12 11 11 11 11 10 10 10 10 10 9 9 9 9 9 9 9 8 8 7 6 7 7 6 6 6 6 6
14 13 12 12 14 13 13 13 13 13 13 13 12 12 12 11 11 11 10 10 11 11 10 9 10 10 9 8 8 9 9 9 9 9 9 8 7 7 6 7 8 6 6
13 12 13 14 13 13 13 12 12 12 11 11 12 11 11 11 11 11 11 10 10 11 11 10 11 10 10 9 8 9 9 9 9 9 9 8 7 7 7 7 7 8 7
8 12 12 12 12 12 13 13 13 13 12 12 11 11 10 8 11 12 11 11 11 10 10 10 10 10 10 9 8 8 8 8 9 9 9 9 8 5 7 6 6 7 7
10 10 11 11 12 12 12 12 12 12 12 12 12 11 8 6 9 7 8 7 10 12 11 9 10 10 10 10 9 8 8 8 9 9 9 9 10 7 5 6 6 6 6
9 10 11 12 11 12 12 11 12 12 12 11 11 12 11 11 9 5 4 6 7 8 9 11 10 10 11 9 8 8 8 9 9 9 9 9 9 9 6 7 7 7 6
9 8 9 10 11 11 11 11 11 11 11 11 11 11 12 11 11 9 7 9 10 9 8 11 11 10 11 10 9 9 8 9 9 9 9 9 9 9 8 6 7 7 6
7 8 8 8 9 9 10 10 10 10 10 10 10 11 11 11 11 11 11 11 11 11 11 11 11 10 10 9 9 9 8 9 9 9 9 9 9 9 9 7 6 7 6
5 5 6 7 7 7 7 8 8 9 9 9 10 10 10 10 10 10 11 11 11 11 11 10 11 9 10 8 8 8 8 9 9 9 9 9 9 9 8 7 7 6 6
1 2 1 2 2 3 3 5 6 6 6 7 8 8 8 9 9 10 10 10 10 10 10 10 10 9 9 9 9 8 9 9 9 9 8 8 8 9 8 8 7 7 7
-2 -2 -1 -1 0 1 1 2 2 3 3 4 4 5 5 6 7 8 9 9 9 10 10 9 9 9 9 9 8 9 9 9 9 9 8 8 8 8 8 8 8 8 7
-4 -4 -3 -3 -2 -2 -1 -0 0 1 1 1 1 2 2 3 4 5 6 6 6 8 8 9 9 9 8 8 9 9 9 9 8 8 8 8 8 7 8 8 8 7 8
-5 -6 -5 -5 -5 -4 -4 -3 -3 -2 -1 -1 -0 -0 0 0 1 2 3 3 4 5 5 5 5 6 7 8 8 8 8 8 8 8 8 8 7 6 6 6 6 7 7
-7 -7 -8 -8 -9 -8 -7 -6 -5 -4 -4 -3 -3 -3 -2 -2 -1 -0 1 1 2 1 2 2 2 3 3 3 4 6 7 7 7 7 7 7 7 6 4 4 4 4 4

GFSMA_850_dewp_132.txt.gz
Dewpoint
9 10 11 11 10 11 10 9 9 10 10 8 11 11 11 11 11 11 11 10 10 10 10 9 9 10 11 9 9 9 9 8 6 5 5 8 8 8 8 8 8 8 4
10 10 10 10 10 10 10 10 9 10 10 8 10 11 11 11 11 11 11 11 10 10 10 10 9 9 10 9 9 9 9 9 8 6 5 7 8 8 8 8 8 7 3
11 10 11 11 10 11 12 11 10 10 10 9 11 10 11 11 11 11 11 11 11 10 9 10 9 9 9 9 9 9 9 9 9 7 6 6 8 7 8 8 7 7 2
12 11 11 11 10 11 12 12 12 11 11 10 11 11 11 10 10 10 10 10 10 10 9 9 9 9 8 8 9 9 9 10 10 8 7 8 8 8 7 7 7 7 4
13 12 11 12 12 13 13 12 12 12 11 11 11 10 11 11 10 10 9 9 9 10 10 10 9 9 9 9 9 9 10 10 9 8 7 8 8 7 7 7 7 6 2
13 12 12 11 12 13 14 12 12 12 11 11 11 10 10 11 10 10 9 9 9 9 9 9 10 9 9 9 9 9 10 10 8 7 7 8 8 8 7 7 7 7 5
11 13 12 12 12 13 12 12 13 12 12 11 10 11 11 11 11 9 10 9 9 9 9 9 9 9 10 10 9 9 10 10 9 7 7 8 7 7 6 7 7 7 7
11 12 13 12 12 13 13 12 12 12 12 11 11 11 11 11 11 10 10 9 9 9 9 9 9 9 9 10 10 10 9 10 9 9 8 8 7 7 7 6 7 6 6
6 12 13 12 11 12 13 12 12 12 12 11 11 11 11 11 11 10 9 9 10 10 10 10 9 10 9 9 9 10 10 10 10 10 10 9 8 7 7 6 6 5 6
7 8 12 13 12 11 13 12 12 12 12 10 12 12 10 10 11 11 10 10 10 10 10 10 10 10 10 10 9 9 10 10 10 10 10 10 10 7 7 6 5 6 6
3 7 9 12 13 12 12 12 13 13 12 11 11 12 12 11 10 9 9 9 10 10 10 10 9 9 8 9 9 9 9 8 10 10 10 9 10 9 8 7 2 1 -3
-3 -1 7 9 12 12 12 13 12 13 12 12 11 12 12 11 10 9 9 9 9 9 10 9 8 8 8 8 8 8 8 9 9 10 10 10 9 9 9 9 7 6 6
-2 -1 -0 6 10 12 12 13 13 13 12 12 12 12 12 12 12 11 10 10 10 10 10 10 10 9 9 9 9 8 8 8 8 9 10 9 10 9 9 9 8 7 6
-3 3 2 2 8 8 13 12 13 13 13 13 12 11 11 12 12 12 12 11 11 10 11 11 10 10 9 10 9 9 9 9 8 8 9 9 9 10 9 8 8 9 7
1 7 5 1 3 6 12 12 12 13 13 12 11 11 12 11 11 12 12 12 11 12 11 10 10 8 9 9 9 10 9 9 8 7 8 8 9 9 10 9 8 8 8
8 8 3 3 7 12 10 12 12 12 11 12 11 11 11 11 11 11 11 11 11 11 11 9 6 5 7 10 10 9 9 9 9 8 7 8 8 9 9 10 9 8 8
8 8 7 6 6 9 11 12 12 12 11 11 11 11 11 11 11 11 11 11 11 11 11 7 7 6 6 8 8 7 8 9 9 9 8 8 8 8 9 9 10 9 9
7 7 6 4 7 9 9 12 12 12 11 12 11 11 11 11 11 11 11 11 11 9 10 7 8 6 7 8 8 8 8 9 9 9 10 9 8 8 9 9 10 9 10
6 6 7 7 5 5 5 10 11 7 11 11 11 11 11 11 12 11 11 11 11 11 10 10 9 9 8 9 9 9 9 9 9 9 10 9 10 9 9 9 9 9 9
6 5 6 5 7 6 5 5 7 5 6 9 9 9 9 10 10 10 10 11 10 10 10 10 10 10 9 9 10 10 10 11 10 9 9 9 10 9 8 9 9 9 9
2 3 3 3 3 4 3 5 5 5 6 6 6 7 5 6 8 7 8 9 9 10 9 10 10 10 10 10 9 10 10 10 10 10 9 9 9 8 8 9 9 9 9
0 1 1 1 1 -1 -1 1 3 3 3 2 3 2 4 5 6 6 6 7 7 8 8 8 8 9 9 9 9 10 10 10 10 10 9 9 8 8 7 9 8 8 9
-2 -1 -0 -0 -0 -1 -1 -1 0 1 1 2 1 1 2 2 2 3 3 4 4 5 5 6 6 6 7 7 8 8 9 9 9 9 9 8 8 7 7 9 8 8 8
-10 -10 -9 -9 -8 -7 -6 -4 -4 -4 -4 -3 -3 -3 -2 -2 -1 -1 -0 1 1 2 2 3 4 4 4 5 5 6 7 8 8 8 8 8 8 8 7 8 8 8 8
-14 -14 -13 -11 -11 -10 -10 -10 -9 -9 -7 -6 -6 -5 -4 -4 -3 -3 -2 -1 -1 -1 -0 0 1 1 1 2 2 3 4 5 6 6 7 7 7 7 8 8 8 8 7
-22 -22 -22 -21 -19 -17 -14 -12 -12 -11 -10 -10 -9 -9 -7 -6 -5 -5 -4 -4 -3 -3 -2 -2 -2 -1 -1 -0 1 1 1 2 3 3 4 4 5 5 6 7 7 8 7

GFSMA_850_dewp_135.txt.gz
Dewpoint
12 11 10 11 12 12 11 10 9 9 10 10 9 7 8 7 8 10 10 10 9 10 9 10 10 10 11 11 11 9 9 7 5 4 4 6 7 8 8 8 8 8 8
14 12 11 11 12 12 11 10 9 9 10 10 9 9 9 8 10 11 11 11 10 10 9 10 9 10 10 11 10 9 9 8 8 7 5 4 8 8 8 8 8 8 8
12 14 13 11 11 12 12 11 10 10 10 10 9 10 11 11 11 11 11 11 10 10 9 9 9 9 9 11 10 10 9 9 9 8 7 6 7 7 8 8 8 7 7
-1 11 14 12 11 12 12 11 11 11 10 10 10 9 11 11 11 10 10 10 10 10 9 9 9 9 8 9 9 10 9 9 9 9 8 7 6 6 8 8 7 7 7
-9 3 12 13 11 10 11 12 12 12 11 10 10 9 10 10 11 10 9 10 10 10 10 10 9 8 8 9 9 9 9 9 9 10 9 8 7 7 3 7 7 7 7
-9 1 9 13 13 10 10 11 12 12 12 11 10 9 10 11 11 10 9 8 9 9 9 9 10 9 8 9 9 9 9 10 10 10 10 8 7 7 7 5 6 7 7
-4 -0 9 11 13 12 9 11 12 12 12 12 10 10 11 11 10 11 9 8 9 9 9 8 8 9 9 9 9 9 9 10 10 10 9 8 8 8 7 7 6 7 7
-0 2 9 9 13 12 11 10 11 12 12 12 11 11 11 12 11 11 11 9 9 9 9 9 9 8 8 9 9 10 9 9 9 10 9 8 8 7 7 7 6 6 6
-1 4 5 7 9 13 12 11 10 12 12 11 12 11 11 11 11 11 10 10 10 9 9 9 9 9 9 8 8 8 10 10 9 10 10 9 9 8 8 7 7 6 6
-2 3 6 8 8 10 13 11 11 11 11 10 11 11 10 10 10 10 9 9 9 9 9 9 9 10 10 10 9 9 8 9 9 10 10 10 10 9 8 7 7 6 5
-1 -0 4 7 10 8 12 12 11 11 11 11 10 12 12 11 9 9 10 9 9 9 9 9 10 10 10 10 10 9 9 9 9 9 10 10 10 10 10 9 7 7 6
-3 -0 1 0 2 8 7 9 12 10 10 11 10 10 11 11 10 10 9 8 7 7 8 9 9 9 9 9 9 8 8 8 9 9 9 10 10 10 10 10 9 7 7
-0 -2 0 -0 -2 -2 7 8 11 11 10 10 11 10 10 11 10 10 10 8 6 7 8 7 8 9 9 8 8 9 8 8 8 8 9 9 10 10 10 9 10 9 8
3 -1 -1 -0 -2 -3 -3 6 9 12 11 10 11 11 11 11 11 11 11 10 10 10 10 9 9 9 9 9 9 8 9 8 9 9 8 9 9 10 10 10 9 9 9
5 4 6 3 -2 -4 -2 -3 7 8 12 10 10 11 11 11 11 11 11 11 10 11 11 10 10 8 9 9 8 9 9 9 9 9 9 8 8 9 10 10 9 9 9
4 5 6 7 3 -3 4 3 3 6 12 11 10 11 11 11 11 11 10 11 11 11 11 10 8 8 9 8 6 7 9 9 9 10 10 9 8 8 8 9 10 10 10
5 5 6 7 6 3 6 6 8 7 8 11 10 11 10 11 11 10 11 11 11 11 10 10 10 10 8 6 7 8 9 9 8 8 8 9 9 8 8 8 9 9 9
5 5 6 7 7 7 10 10 9 8 8 11 11 10 12 11 10 11 10 10 10 9 10 10 10 10 10 8 8 7 8 8 7 7 7 9 9 9 8 8 8 8 9
-0 4 5 5 5 6 7 9 9 9 9 8 11 11 11 11 11 11 11 11 10 11 10 9 11 7 8 9 8 8 7 7 8 7 7 8 8 9 9 10 9 8 9
-4 0 3 5 5 5 5 5 6 6 3 3 7 6 8 9 11 10 10 10 11 10 10 11 10 9 10 9 10 10 9 9 9 9 8 8 9 9 9 10 10 9 8
-4 -3 -1 1 3 4 4 4 5 5 4 4 3 4 3 2 5 8 8 8 8 9 9 9 9 10 10 10 10 10 10 10 8 8 9 7 9 9 9 9 10 9 8
-3 -5 -2 -1 0 0 1 2 2 2 3 2 2 2 3 1 -2 2 4 6 4 5 6 7 8 7 9 9 9 9 9 9 9 9 9 10 9 9 10 9 9 9 8
-8 -4 -2 -2 -3 -2 -0 0 1 1 1 0 0 1 1 1 2 3 2 3 3 3 4 4 5 5 5 6 6 7 7 7 8 8 8 9 9 9 8 8 8 7 7
-16 -12 -10 -9 -9 -8 -6 -4 -2 -2 -2 -2 -3 -3 -3 -2 -1 -0 0 0 0 1 1 1 2 2 2 3 3 3 4 5 6 7 7 6 8 8 8 8 7 7 7
-24 -22 -19 -16 -15 -14 -13 -14 -13 -11 -10 -9 -9 -7 -6 -5 -4 -4 -4 -3 -3 -2 -2 -2 -2 -1 -1 -0 1 1 1 2 3 3 4 5 5 6 7 7 7 7 7
-25 -22 -21 -21 -19 -21 -21 -22 -22 -20 -19 -17 -14 -12 -11 -8 -7 -7 -6 -5 -5 -5 -4 -4 -4 -4 -3 -3 -2 -2 -1 -0 0 1 2 2 2 3 4 5 6 7 6

GFSMA_850_dewp_141.txt.gz
Dewpoint
-11 -10 -2 7 12 12 12 12 12 12 12 10 10 10 10 10 8 7 7 9 8 7 9 10 10 11 11 11 11 10 10 8 7 5 6 7 7 7 7 7 7 7 8
-10 -10 -10 3 5 9 12 12 12 11 11 11 10 10 10 10 9 7 7 7 9 9 9 9 9 10 11 11 11 10 10 10 8 5 4 5 7 7 7 7 7 8 7
-9 -10 -9 -8 -3 3 5 13 13 12 12 11 11 10 11 10 9 7 7 8 10 9 9 10 9 9 10 11 11 11 11 10 9 6 7 5 5 6 6 7 6 8 8
-7 -9 -10 -9 -6 4 9 10 13 13 12 11 11 10 10 10 10 7 8 9 10 10 10 9 9 9 10 10 10 11 11 10 10 9 9 8 6 6 6 7 7 7 8
-5 -6 -8 -10 -7 -3 7 10 10 13 13 12 11 11 10 10 10 8 8 9 10 10 10 9 8 9 9 9 9 10 11 10 10 9 9 8 8 7 6 7 7 7 6
-5 -5 -6 -9 -8 -1 6 12 12 12 12 12 12 11 11 10 10 9 9 10 10 9 9 9 9 9 9 9 9 9 10 10 10 10 9 9 9 9 6 5 6 5 7
-5 -5 -5 -6 -8 -2 7 10 12 10 12 13 13 13 12 11 11 10 10 10 10 10 9 9 9 9 9 9 9 9 9 9 9 9 9 9 9 10 8 6 7 6 4
-4 -4 -4 -5 -5 -1 2 9 10 11 11 10 12 12 12 12 11 11 11 11 11 10 9 9 9 8 9 9 9 8 9 9 9 9 9 9 9 10 9 8 7 7 5
-2 -2 -3 -3 -3 3 3 7 8 7 7 10 12 12 11 11 11 11 10 11 11 10 10 8 8 8 8 8 8 9 9 9 9 9 9 10 10 10 10 9 8 7 7
-1 -1 -1 -2 -2 2 3 6 7 9 6 5 8 12 11 10 11 12 11 11 10 10 10 10 8 8 8 8 8 8 8 9 9 9 9 10 9 10 10 9 8 7 7
-0 -1 -0 -0 0 -0 -1 4 9 10 10 8 9 11 12 11 10 10 11 11 11 10 11 10 9 9 8 8 9 9 9 8 9 9 9 10 10 9 10 9 9 8 8
-1 0 0 0 1 2 -2 4 8 10 9 8 8 10 11 12 11 10 10 11 9 10 10 10 10 9 9 9 9 9 9 10 9 9 9 9 9 9 9 10 10 9 9
-2 0 0 1 1 2 -0 3 6 9 8 7 8 10 10 11 10 11 10 11 11 11 10 10 10 9 9 9 9 9 9 10 10 10 10 10 9 9 9 10 10 9 10
-2 -1 1 2 2 3 3 2 1 5 8 5 8 6 8 11 10 11 10 10 10 11 10 9 9 9 8 9 9 8 9 9 9 9 10 10 10 10 10 9 9 9 10
-2 -1 1 3 3 3 3 2 2 1 5 2 4 5 7 9 11 11 10 10 9 10 10 9 8 8 8 8 8 8 9 9 8 9 9 9 8 9 9 9 9 9 9
-2 -1 1 3 3 4 4 5 4 -1 5 -3 2 7 6 8 9 10 11 10 10 9 9 8 8 7 6 7 7 8 8 9 9 9 9 9 9 9 9 9 9 9 9
-4 -2 -0 2 2 4 5 6 4 3 6 7 7 8 7 6 6 8 10 10 10 10 10 10 9 9 9 8 9 9 9 9 9 9 8 8 9 10 9 9 9 9 9
-4 -3 -2 -0 1 3 4 6 7 7 7 7 8 8 8 8 7 8 9 10 10 9 9 10 10 10 10 9 9 9 8 9 9 9 6 7 7 9 10 10 9 9 8
-5 -4 -4 -3 -2 -0 2 3 4 4 5 6 6 7 8 8 8 7 10 10 9 10 9 9 10 10 10 10 10 10 9 10 8 7 7 8 9 9 9 8 8 9 9
-4 -4 -4 -6 -4 -3 -2 -1 0 0 1 1 2 5 7 7 8 8 9 9 10 10 9 9 10 10 10 11 11 10 11 10 10 9 8 7 8 8 8 8 9 8 8
-4 -5 -4 -4 -5 -3 -3 -3 -2 -3 -2 -3 -3 -2 1 3 5 6 7 8 8 8 9 10 10 10 10 10 10 10 9 10 9 9 9 10 9 8 9 9 9 9 9
-9 -10 -8 -7 -4 -4 -3 -2 -1 -2 -3 -4 -6 -4 -2 -0 1 2 3 4 4 4 6 6 5 4 4 6 6 6 6 8 8 8 9 9 10 10 9 8 7 8 8
-24 -24 -23 -21 -18 -16 -13 -5 -3 -2 -2 -4 -4 -5 -3 -3 -1 -0 1 2 2 2 2 1 1 1 1 2 4 3 2 5 5 5 5 7 7 8 8 8 8 7 6
-27 -28 -27 -25 -26 -23 -23 -24 -26 -26 -20 -13 -10 -9 -5 -4 -4 -2 -1 -0 0 1 1 0 1 -0 0 -0 -0 1 1 2 3 3 3 5 5 5 5 6 6 7 7
-28 -30 -30 -31 -34 -31 -35 -37 -36 -34 -33 -32 -32 -31 -28 -23 -16 -8 -4 -3 -3 -2 -3 -3 -3 -2 -2 -1 -1 -1 0 -0 -0 0 0 1 2 2 3 3 4 5 5
-30 -30 -33 -34 -34 -34 -36 -38 -38 -38 -39 -37 -36 -33 -31 -26 -26 -26 -26 -20 -13 -8 -6 -5 -5 -4 -4 -4 -3 -2 -3 -3 -4 -3 -2 -3 -3 -2 -2 -0 1 2 2

GFSMA_850_dewp_147.txt.gz
Dewpoint
-7 -6 -6 -7 -7 -3 8 7 7 12 13 13 11 12 12 12 11 12 12 12 12 10 9 9 9 10 10 11 11 11 10 9 8 8 7 8 9 9 9 8 9 9 9
-6 -7 -7 -6 -4 -1 3 7 10 9 12 12 13 11 12 12 12 10 12 13 12 11 8 9 10 10 10 11 11 11 10 9 9 8 9 7 8 9 9 9 9 9 9
0 -2 -2 -4 -4 -2 -0 1 7 10 9 11 12 12 11 11 12 11 11 12 12 11 9 8 9 10 11 11 11 11 11 10 9 9 9 7 8 9 9 9 9 9 8
2 2 2 2 2 1 2 3 4 9 10 11 10 12 12 11 11 11 11 10 12 12 11 8 8 8 10 11 11 11 11 11 10 10 9 9 7 8 8 8 8 7 7
1 1 2 2 3 3 3 3 3 5 11 11 11 10 12 13 11 12 12 11 12 12 12 11 7 8 10 10 11 11 11 11 11 10 9 10 7 7 7 7 7 7 6
0 0 0 1 1 2 3 4 4 5 7 10 11 11 11 12 12 11 12 11 11 11 11 12 11 9 9 10 10 10 11 11 11 11 10 10 7 7 6 6 5 6 7
-2 -2 -2 -2 -1 -0 2 3 4 4 4 6 11 11 10 10 13 12 11 13 10 12 11 12 12 11 9 9 9 10 10 11 11 11 11 10 9 8 7 6 6 5 6
-3 -3 -2 -2 -1 -1 1 1 2 4 5 4 8 11 11 11 13 13 11 9 12 12 12 11 12 12 12 10 9 9 10 10 10 10 11 10 10 9 9 8 7 7 6
-3 -2 -2 -2 -1 -1 -0 0 1 2 4 6 6 9 10 10 11 12 12 11 11 11 12 11 12 12 12 12 10 8 9 10 9 10 10 10 10 9 9 9 9 9 7
-4 -3 -2 -2 -1 -1 -0 0 0 1 2 5 6 9 9 10 10 9 9 11 11 12 11 12 12 12 11 12 11 10 8 9 9 9 10 10 10 10 9 9 9 9 9
-5 -4 -4 -3 -2 -1 -0 0 1 0 2 3 6 7 8 10 11 10 10 10 6 10 12 12 11 11 12 11 11 11 10 8 9 8 9 9 9 9 9 9 9 9 10
-5 -4 -4 -2 -1 -1 -0 1 1 1 1 2 4 6 9 10 10 10 11 11 11 8 11 11 12 11 12 11 11 11 10 10 8 8 8 9 8 9 9 9 10 10 10
-6 -5 -4 -3 -1 0 0 1 1 1 1 2 3 5 8 9 9 10 10 10 10 9 7 12 12 11 11 11 11 11 10 10 9 8 8 8 8 9 9 9 9 10 10
-6 -6 -5 -4 -2 -1 1 2 2 2 2 2 4 3 6 9 9 9 8 8 9 8 5 11 11 11 11 11 11 10 10 10 9 7 7 7 8 8 9 9 9 9 9
-7 -7 -6 -5 -2 -1 1 2 2 2 2 3 4 5 6 6 6 7 9 8 7 7 8 7 11 12 11 11 11 11 11 10 9 7 8 9 9 8 8 8 8 8 9
-7 -7 -7 -5 -4 -2 -0 1 2 3 4 4 5 7 8 8 8 8 8 9 8 9 8 8 11 10 11 11 11 12 11 11 10 9 8 9 9 10 9 9 9 9 9
-7 -7 -7 -6 -5 -4 -3 -1 1 3 4 5 6 7 8 8 8 10 9 9 9 8 9 9 10 11 12 12 12 12 11 11 11 9 9 8 9 10 10 10 9 9 9
-6 -6 -7 -7 -7 -6 -6 -3 -3 1 2 5 5 6 7 7 9 9 9 9 10 10 9 9 10 10 10 11 11 12 11 11 11 9 9 9 9 9 10 10 10 10 9
-6 -5 -5 -6 -7 -8 -7 -5 -6 -2 0 1 2 3 5 6 7 7 7 8 9 9 10 9 9 9 10 8 12 12 12 12 12 12 11 10 9 9 10 10 10 10 10
-23 -18 -7 -4 -5 -7 -7 -8 -6 -4 -4 -2 1 1 1 3 4 5 6 6 6 7 8 9 9 9 8 8 8 8 11 11 11 11 11 9 9 9 10 11 10 10 9
-26 -21 -23 -27 -19 -9 -6 -5 -6 -4 -3 -3 -2 -2 -2 -2 -1 0 2 4 5 6 6 8 9 8 8 8 6 6 7 10 10 10 11 10 10 10 10 9 9 8 8
-27 -28 -26 -31 -32 -22 -18 -23 -13 -8 -6 -5 -4 -3 -3 -2 -3 -2 -2 -1 1 2 2 3 2 3 2 5 6 6 4 6 7 9 9 8 9 9 9 9 9 9 9
-13 -19 -21 -30 -34 -35 -20 -25 -35 -36 -34 -30 -24 -13 -6 -4 -3 -4 -3 -1 -2 -3 -3 -3 -2 -0 -0 -0 1 5 4 4 3 3 5 6 5 6 6 7 9 9 9
-11 -12 -18 -17 -32 -35 -30 -17 -24 -35 -36 -35 -35 -35 -35 -32 -24 -16 -9 -4 -3 -4 -5 -5 -4 -3 -2 -1 0 0 1 -0 1 1 2 3 2 2 3 3 3 6 6
-10 -11 -13 -28 -28 -35 -36 -33 -18 -21 -31 -34 -35 -35 -36 -38 -37 -36 -33 -28 -25 -21 -14 -7 -6 -4 -3 -3 -1 -1 -0 -0 -1 -1 -0 0 -0 -0 1 1 0 1 2
-10 -10 -11 -14 -24 -32 -37 -38 -33 -23 -26 -28 -33 -35 -36 -36 -37 -38 -38 -37 -35 -29 -29 -29 -26 -24 -24 -19 -15 -10 -6 -4 -4 -4 -3 -3 -3 -2 -1 -1 -1 -2 0

GFSMA_850_dewp_153.txt.gz
Dewpoint
-5 -6 -6 -6 -7 -7 -6 -6 -5 -4 1 1 7 10 11 11 11 11 10 11 11 12 12 12 11 11 9 8 10 10 11 9 9 9 7 7 9 8 8 9 8 8 9
-4 -3 -3 -3 -4 -4 -5 -5 -5 -5 -2 1 2 8 10 10 11 11 11 11 11 11 12 12 12 11 9 8 9 10 10 9 9 9 8 5 6 8 8 9 9 8 9
-4 -4 -3 -3 -2 -2 -2 -2 -3 -3 -3 -2 1 5 9 10 9 11 11 11 11 9 7 12 11 11 9 8 9 9 10 9 10 8 8 6 8 8 9 9 8 8 8
-4 -4 -4 -4 -4 -4 -4 -2 -1 -1 -1 -1 -1 0 8 9 9 6 10 11 10 10 11 11 11 11 10 8 8 9 10 11 10 10 10 7 8 8 8 9 9 8 8
-4 -4 -4 -4 -3 -3 -3 -3 -3 -1 -0 -0 -0 -0 2 9 11 10 10 9 11 10 11 11 11 10 11 9 7 8 10 11 11 11 10 9 9 8 8 8 9 9 8
-4 -4 -4 -3 -3 -3 -2 -2 -1 -1 -1 -0 0 0 0 6 8 11 11 9 9 11 10 10 11 10 11 10 8 7 9 10 11 11 11 10 9 9 10 9 8 9 9
-5 -5 -4 -4 -3 -3 -2 -2 -2 -1 -1 -0 -1 0 1 -1 6 9 11 11 9 10 11 10 10 11 10 11 10 8 7 10 11 11 11 10 9 9 9 9 7 8 9
-5 -4 -4 -4 -4 -4 -3 -2 -2 -2 -1 -0 1 1 2 1 -2 5 9 11 11 9 11 11 10 10 10 11 10 10 7 8 10 11 11 11 10 10 10 9 9 6 7
-5 -5 -5 -5 -4 -3 -3 -3 -2 -2 -2 -1 -0 0 2 5 6 2 2 8 10 10 10 12 11 10 11 9 10 11 9 8 9 10 11 11 11 11 10 10 8 5 5
-5 -6 -6 -6 -5 -4 -3 -3 -2 -2 -2 -1 -0 1 1 2 3 5 8 9 8 6 5 6 11 11 11 10 10 9 10 9 8 9 10 10 11 11 11 10 10 6 5
-6 -7 -6 -6 -5 -4 -4 -3 -2 -2 -1 -1 -1 -1 0 1 1 3 4 6 8 10 9 8 6 10 10 11 11 10 11 10 10 9 9 9 10 11 11 10 10 8 7
-6 -6 -6 -6 -6 -5 -4 -3 -2 -1 -1 -1 0 0 0 1 1 3 5 6 7 8 9 10 9 10 11 10 9 8 8 10 10 10 9 8 8 10 10 11 10 9 8
-7 -6 -6 -6 -6 -5 -4 -3 -2 -2 -1 -0 1 1 2 1 1 1 2 4 6 7 9 9 8 9 9 10 6 7 7 11 10 10 10 9 8 9 9 10 10 10 9
-6 -6 -6 -6 -6 -6 -5 -4 -3 -2 -1 0 1 2 2 2 2 2 2 4 5 6 8 8 9 9 11 10 6 8 10 11 10 10 10 10 9 8 9 9 10 10 10
-6 -5 -5 -6 -6 -6 -5 -4 -3 -3 -2 -1 1 2 2 2 2 3 3 2 5 6 8 8 8 8 9 9 8 7 10 11 11 11 10 10 10 9 8 9 9 10 10
-12 -6 -5 -5 -6 -6 -6 -5 -4 -4 -3 -2 -2 -0 1 2 3 3 4 4 3 6 7 8 8 7 7 8 8 9 10 9 9 9 10 11 10 10 9 8 8 9 10
-28 -25 -8 -5 -5 -6 -6 -6 -6 -5 -4 -4 -3 -3 -2 -1 1 2 4 4 6 6 7 8 8 8 7 7 8 7 6 7 7 7 6 8 10 10 9 9 8 8 9
-32 -29 -28 -20 -8 -7 -6 -6 -6 -6 -5 -6 -7 -6 -5 -3 -1 1 3 4 6 7 8 8 8 8 8 9 10 9 8 9 9 10 9 10 11 10 9 9 8 8 9
-33 -32 -29 -29 -34 -30 -19 -6 -5 -5 -6 -6 -7 -9 -8 -7 -4 -0 -0 3 6 5 7 7 7 8 8 9 9 9 9 9 9 9 8 7 11 11 11 10 8 8 7
-33 -34 -29 -26 -28 -28 -31 -31 -19 -7 -5 -5 -6 -7 -9 -9 -9 -4 -2 2 2 4 5 5 5 6 6 6 7 7 7 8 8 8 6 7 8 9 8 11 9 8 8
-32 -36 -35 -31 -26 -19 -19 -32 -31 -34 -34 -24 -11 -8 -7 -6 -8 -9 -7 -4 -1 1 1 2 2 2 3 3 4 5 4 4 7 7 7 7 7 6 6 6 10 9 9
-29 -34 -36 -35 -31 -22 -20 -27 -33 -30 -31 -33 -35 -31 -26 -20 -7 -7 -7 -7 -5 -4 -4 -4 -3 -3 -2 -1 -0 2 3 2 2 4 3 3 4 2 3 1 3 10 10
-18 -23 -30 -31 -29 -26 -29 -30 -30 -33 -27 -26 -28 -34 -33 -28 -23 -22 -12 -7 -7 -8 -7 -7 -6 -5 -4 -4 -2 -2 -1 -0 -1 -2 -0 0 0 0 -0 -1 -2 4 10
-12 -15 -19 -25 -24 -16 -24 -27 -29 -29 -29 -21 -18 -22 -30 -34 -32 -29 -29 -28 -26 -22 -16 -10 -9 -8 -6 -5 -3 -3 -2 -3 -3 -2 -2 -3 -2 -1 -0 -1 -3 -1 1
-10 -11 -14 -19 -24 -18 -13 -19 -24 -24 -23 -22 -18 -13 -19 -26 -28 -33 -34 -32 -28 -25 -23 -24 -21 -19 -15 -8 -4 -2 -3 -2 -4 -5 -4 -5 -4 -4 -3 -2 -2 -3 -1
-10 -10 -12 -15 -22 -26 -15 -13 -17 -17 -19 -18 -17 -16 -14 -15 -33 -37 -37 -35 -34 -31 -31 -30 -29 -24 -19 -13 -15 -17 -15 -13 -6 -6 -8 -7 -5 -5 -5 -6 -5 -4 -4